CZ-6A DEB

基本信息
目录编号:
54512
目录名称:
CZ-6A DEB
国际标识:
2022-151JQ
轨道中心:
EARTH
物体状态:
在轨
发射日期:
2022-11-11 UTC
轨道信息
数据来源: 国际轨道数据
星历时间: 2026-09-13T23:02:12+0800
半长轴: 7045km
偏心率: 0.0087443
轨道倾角: 98.587°
近地点辐角: 13.949°
升交点赤经: 320.445°
平近点角: 346.409°
近地点: 605.259km
远地点: 728.467km
周期: 98.080分钟
每日圈数: 14.681867
详细信息
发射场:
TSC
轨道高度:
LEO
数据来源:
AOE Integration Group
参考系:
TEME
时间系统:
UTC
历元类型:
SGP4
2D轨道图
3D轨道图
轨道高度分析图
轨道倾角分析图
轨道综合分析图
查看轨道综合分析图